Location: Ferma
(41.9500°N, 44.5167°E)
Time: 18:32:03
(UTC+00:00)

Okean-O - Pass Details

Date: 24 October 2021
Orbit: 639 x 640 km, 98.2° (Epoch: 02 December)

Event Time Altitude Azimuth Distance (km) Brightness Sun altitude
Exits shadow 16:25:09 61° 330° (NNW) 727 2.9 -26.3°
Drops below altitude 10° 16:28:52 10° 345° (NNW) 2,041 5.5 -27.0°
Sets 16:31:05 0° 346° (NNW) 2,954 6.3 -27.4°
